TimeCST,TemperatureF,Dew PointF,Humidity,Sea Level PressureIn,VisibilityMPH,Wind Direction,Wind SpeedMPH,Gust SpeedMPH,PrecipitationIn,Events,Conditions,WindDirDegrees,DateUTC
12:15 AM,10.4,8.6,92,30.03,2.0,NNE,17.3,27.6,0.02,Snow,Light Snow,20,2012-12-09 06:15:00
12:35 AM,10.4,8.6,92,30.03,2.0,NNE,21.9,32.2,0.07,Snow,Light Snow,30,2012-12-09 06:35:00
1:15 AM,10.4,6.8,85,30.04,3.0,NNE,16.1,28.8,0.01,Snow,Light Snow,20,2012-12-09 07:15:00
1:35 AM,10.4,6.8,85,30.04,5.0,North,18.4,32.2,0.02,Snow,Light Snow,10,2012-12-09 07:35:00
1:55 AM,10.4,6.8,85,30.04,6.0,North,20.7,29.9,0.02,Snow,Light Snow,10,2012-12-09 07:55:00
2:15 AM,8.6,6.8,92,30.04,9.0,NNE,24.2,32.2,N/A,Snow,Light Snow,20,2012-12-09 08:15:00
2:35 AM,8.6,6.8,92,30.05,6.0,NNE,21.9,28.8,N/A,Snow,Light Snow,20,2012-12-09 08:35:00
2:55 AM,8.6,6.8,92,30.06,7.0,NNE,26.5,34.5,0.01,Snow,Light Snow,20,2012-12-09 08:55:00
3:15 AM,8.6,6.8,92,30.06,9.0,North,19.6,38.0,N/A,Snow,Light Snow,10,2012-12-09 09:15:00
3:35 AM,8.6,5.0,85,30.07,4.0,NNE,24.2,34.5,0.01,Snow,Light Snow,20,2012-12-09 09:35:00
3:55 AM,8.6,5.0,85,30.08,5.0,North,23.0,33.4,0.02,Snow,Light Snow,10,2012-12-09 09:55:00
4:15 AM,6.8,5.0,92,30.08,4.0,NNE,26.5,34.5,N/A,Snow,Light Snow,20,2012-12-09 10:15:00
4:35 AM,6.8,3.2,85,30.09,5.0,NNE,26.5,40.3,0.01,Snow,Light Snow,20,2012-12-09 10:35:00
4:55 AM,6.8,3.2,85,30.10,3.0,North,24.2,33.4,0.02,Snow,Light Snow,10,2012-12-09 10:55:00
5:15 AM,6.8,1.4,79,30.11,4.0,NNE,26.5,38.0,0.01,Snow,Light Snow,20,2012-12-09 11:15:00
5:35 AM,5.0,-0.4,78,30.13,4.0,North,23.0,33.4,0.02,Snow,Light Snow,10,2012-12-09 11:35:00
5:55 AM,5.0,-0.4,78,30.14,7.0,North,25.3,34.5,0.03,Snow,Light Snow,10,2012-12-09 11:55:00
6:15 AM,5.0,-2.2,72,30.15,10.0,North,25.3,35.7,N/A,Snow,Light Snow,10,2012-12-09 12:15:00
6:35 AM,3.2,-4.0,72,30.16,10.0,North,24.2,35.7,0.01,Snow,Light Snow,10,2012-12-09 12:35:00
6:55 AM,3.2,-7.6,61,30.18,10.0,North,25.3,35.7,0.02,Snow,Light Snow,10,2012-12-09 12:55:00
7:15 AM,1.4,-7.6,66,30.19,10.0,North,25.3,33.4,N/A,Snow,Light Snow,10,2012-12-09 13:15:00
7:35 AM,1.4,-7.6,66,30.19,10.0,North,25.3,35.7,0.01,Snow,Light Snow,10,2012-12-09 13:35:00
7:55 AM,3.2,-4.0,72,30.19,10.0,North,24.2,39.1,0.02,Snow,Light Snow,10,2012-12-09 13:55:00
8:15 AM,1.4,-2.2,85,30.21,10.0,North,23.0,32.2,N/A,Snow,Light Snow,10,2012-12-09 14:15:00
8:35 AM,3.2,-0.4,85,30.21,10.0,North,24.2,40.3,0.01,Snow,Light Snow,10,2012-12-09 14:35:00
8:55 AM,3.2,-0.4,85,30.22,10.0,North,23.0,35.7,0.02,Snow,Light Snow,10,2012-12-09 14:55:00
9:15 AM,3.2,-0.4,85,30.23,10.0,North,23.0,31.1,N/A,Snow,Light Snow,10,2012-12-09 15:15:00
9:35 AM,3.2,-0.4,85,30.25,8.0,North,23.0,27.6,N/A,Snow,Light Snow,10,2012-12-09 15:35:00
9:55 AM,5.0,-0.4,78,30.25,8.0,North,26.5,33.4,0.01,Snow,Light Snow,10,2012-12-09 15:55:00
10:15 AM,5.0,-0.4,78,30.26,7.0,North,21.9,34.5,N/A,Snow,Light Snow,10,2012-12-09 16:15:00
10:35 AM,5.0,-0.4,78,30.28,6.0,North,20.7,29.9,N/A,Snow,Light Snow,10,2012-12-09 16:35:00
10:55 AM,5.0,-0.4,78,30.27,7.0,North,18.4,32.2,N/A,Snow,Light Snow,10,2012-12-09 16:55:00
11:15 AM,5.0,-0.4,78,30.27,7.0,North,18.4,28.8,N/A,Snow,Light Snow,10,2012-12-09 17:15:00
11:35 AM,5.0,-0.4,78,30.27,7.0,North,23.0,31.1,N/A,Snow,Light Snow,10,2012-12-09 17:35:00
11:55 AM,5.0,-0.4,78,30.26,7.0,North,25.3,28.8,N/A,Snow,Light Snow,360,2012-12-09 17:55:00
12:15 PM,5.0,-0.4,78,30.25,10.0,North,19.6,26.5,N/A,Snow,Light Snow,350,2012-12-09 18:15:00
12:35 PM,5.0,-0.4,78,30.25,10.0,North,20.7,25.3,0.01,Snow,Light Snow,360,2012-12-09 18:35:00
12:55 PM,6.8,-0.4,72,30.25,10.0,North,21.9,31.1,0.01,Snow,Light Snow,350,2012-12-09 18:55:00
1:15 PM,6.8,-2.2,67,30.25,10.0,North,20.7,29.9,N/A,Snow,Light Snow,350,2012-12-09 19:15:00
1:35 PM,6.8,-0.4,72,30.24,10.0,North,19.6,29.9,N/A,Snow,Light Snow,350,2012-12-09 19:35:00
1:55 PM,6.8,-0.4,72,30.23,10.0,North,19.6,29.9,0.01,Snow,Light Snow,350,2012-12-09 19:55:00
2:15 PM,6.8,-0.4,72,30.23,10.0,North,21.9,25.3,N/A,Snow,Light Snow,350,2012-12-09 20:15:00
2:35 PM,6.8,-0.4,72,30.23,10.0,NNW,18.4,24.2,N/A,Snow,Light Snow,340,2012-12-09 20:35:00
2:55 PM,6.8,-0.4,72,30.23,10.0,North,18.4,25.3,N/A,,Clear,350,2012-12-09 20:55:00
3:15 PM,8.6,-0.4,67,30.23,10.0,North,16.1,-,N/A,,Clear,350,2012-12-09 21:15:00
3:35 PM,6.8,-0.4,72,30.23,10.0,North,20.7,24.2,N/A,,Clear,350,2012-12-09 21:35:00
3:55 PM,6.8,-0.4,72,30.24,10.0,North,11.5,-,N/A,,Clear,350,2012-12-09 21:55:00
4:15 PM,5.0,-0.4,78,30.23,10.0,NNW,13.8,-,N/A,,Clear,340,2012-12-09 22:15:00
4:35 PM,5.0,-2.2,72,30.24,10.0,NNW,12.7,-,N/A,,Clear,340,2012-12-09 22:35:00
4:55 PM,1.4,-2.2,85,30.25,10.0,NNW,17.3,20.7,N/A,,Clear,330,2012-12-09 22:55:00
5:15 PM,1.4,-4.0,78,30.25,10.0,NNW,13.8,-,N/A,,Clear,340,2012-12-09 23:15:00
5:35 PM,1.4,-4.0,78,30.25,10.0,North,12.7,-,N/A,,Clear,350,2012-12-09 23:35:00
5:55 PM,-0.4,-4.0,85,30.25,10.0,NNW,12.7,-,N/A,,Clear,340,2012-12-09 23:55:00
6:15 PM,-0.4,-5.8,78,30.25,10.0,NNW,10.4,-,N/A,,Clear,340,2012-12-10 00:15:00
6:35 PM,-0.4,-5.8,78,30.25,10.0,NNW,12.7,-,N/A,,Clear,330,2012-12-10 00:35:00
6:55 PM,-0.4,-5.8,78,30.24,10.0,NNW,10.4,-,N/A,,Clear,330,2012-12-10 00:55:00
7:15 PM,-0.4,-5.8,78,30.24,10.0,NNW,12.7,-,N/A,,Clear,330,2012-12-10 01:15:00
7:35 PM,-0.4,-5.8,78,30.23,10.0,NNW,9.2,-,N/A,,Clear,340,2012-12-10 01:35:00
7:55 PM,-2.2,-7.6,78,30.22,10.0,North,6.9,-,N/A,,Clear,350,2012-12-10 01:55:00
8:15 PM,-2.2,-5.8,85,30.20,10.0,NNW,5.8,-,N/A,,Clear,340,2012-12-10 02:15:00
8:35 PM,-4.0,-9.4,78,30.20,10.0,NW,6.9,-,N/A,,Clear,320,2012-12-10 02:35:00
8:55 PM,-4.0,-9.4,78,30.19,10.0,NW,4.6,-,N/A,,Clear,310,2012-12-10 02:55:00
9:15 PM,-5.8,-9.4,84,30.18,10.0,WNW,5.8,-,N/A,,Clear,300,2012-12-10 03:15:00
9:35 PM,-4.0,-9.4,78,30.18,10.0,NW,6.9,-,N/A,,Clear,310,2012-12-10 03:35:00
10:15 PM,-5.8,-9.4,84,30.18,10.0,NW,8.1,-,N/A,,Clear,310,2012-12-10 04:15:00
10:55 PM,-5.8,-9.4,84,30.15,10.0,NW,4.6,-,N/A,,Mostly Cloudy,310,2012-12-10 04:55:00
11:15 PM,-4.0,-9.4,78,30.13,10.0,Calm,Calm,-,N/A,,Overcast,0,2012-12-10 05:15:00
11:35 PM,-5.8,-9.4,84,30.13,10.0,SSW,3.5,-,N/A,,Overcast,210,2012-12-10 05:35:00
11:55 PM,-5.8,-9.4,84,30.12,10.0,Calm,Calm,-,N/A,,Overcast,0,2012-12-10 05:55:00